Terug naar catalogus

DELTA 1 DEB

ActiefPO
NORAD 7892·DEBRIS·🇺🇸 United States

Gelanceerd Jul 23, 1972 vanaf Vandenberg Space Force Base

Loading…

Volgende Passages (komende 24 uur)

TLE

VersSource: Space-Track

Epoch: Sep 14, 2026, 14:44 UTC

1 07892U 72058BJ  26257.61425294  .00000861  00000-0  13163-3 0  9995
2 07892  98.6156 214.9592 0096282 161.3424 199.1352 14.73637981698320

Volg DELTA 1 DEB in realtime met AllMySat

Download on the App Store